Theta_e
284 285 284 284 285 284 284 283 283 282 283 283 283 284 285 285 286 285 286 286 286 285 285 285 283 283 283 283 282 283 283 283 283 283 283 284 284 285 285 286 285 285 286 286 288 291 292 293 294 295 297 297 296 296 297 297 297 297 299 300 301 302 305 310 316 318 315 314 314 314 314 314 316 317 318 319 320 323 325 324 324 324 325 326 326
284 283 284 283 283 283 282 282 284 282 282 283 283 284 284 285 285 285 285 285 285 285 285 284 283 283 282 282 282 282 281 281 281 282 282 284 284 284 285 284 284 284 284 284 285 286 288 291 293 294 296 296 296 297 297 297 297 297 298 298 301 302 303 308 312 315 311 309 305 302 303 306 306 312 316 317 318 317 319 323 323 322 322 324 324
282 282 283 282 282 282 281 282 282 282 282 281 282 283 284 284 284 284 285 285 285 285 284 283 283 283 282 282 282 281 282 282 282 282 283 283 283 283 284 284 284 283 283 284 285 286 287 289 291 294 295 296 295 295 295 295 295 296 297 297 298 301 302 304 307 314 310 311 310 305 300 303 303 305 310 314 315 316 315 317 320 321 320 321 322
281 281 281 281 281 281 281 281 281 282 281 281 283 283 284 284 283 284 284 284 284 284 285 283 283 283 283 282 282 281 280 282 282 282 282 282 281 283 283 283 283 283 283 284 285 285 286 287 290 292 293 294 295 295 295 294 295 295 296 297 299 298 299 299 304 310 314 311 303 305 304 306 302 303 306 306 308 314 314 316 316 319 318 318 318
280 280 281 281 281 281 281 281 281 281 281 281 282 282 284 282 283 283 283 283 283 284 282 282 282 281 281 281 281 281 281 280 280 279 280 281 281 281 281 282 282 282 283 283 283 283 284 285 287 289 292 293 295 295 295 295 295 295 296 297 298 299 298 299 301 306 312 316 310 305 300 303 305 306 307 301 301 310 312 314 313 316 316 315 317
281 281 281 281 280 280 280 280 280 280 281 282 282 283 282 282 282 283 283 283 282 282 282 282 281 280 279 278 277 277 277 277 276 277 278 278 278 280 281 281 281 281 282 282 283 284 284 285 286 287 290 293 294 295 295 295 295 295 295 297 298 300 299 298 298 303 305 311 314 313 310 305 307 307 307 300 299 299 309 313 314 315 315 314 316
280 280 280 280 280 280 279 279 280 280 281 282 282 282 282 282 282 282 282 282 283 282 281 281 280 279 278 278 278 277 276 277 278 279 278 279 279 279 280 280 280 281 281 282 282 282 283 284 285 286 288 291 294 294 295 295 295 294 295 297 298 300 300 298 298 299 303 306 312 314 309 304 311 307 305 303 298 299 301 308 311 314 314 315 315
281 280 280 279 279 279 279 280 280 280 281 282 282 282 281 281 281 281 282 282 281 281 281 280 279 279 278 277 278 277 277 276 277 278 279 279 278 278 279 279 280 281 281 281 281 281 282 283 284 286 287 288 291 293 294 295 294 295 295 297 299 300 300 299 298 299 298 299 308 311 308 306 311 312 312 307 304 300 299 299 303 311 313 314 315
280 280 280 279 279 279 279 279 280 280 281 281 281 281 281 281 281 281 281 280 280 280 281 279 279 279 278 277 276 277 277 277 278 278 278 278 277 278 278 278 279 280 280 280 280 281 281 282 284 284 284 286 288 291 293 295 295 294 294 295 296 298 299 300 299 298 299 298 302 308 302 306 309 311 308 299 305 302 301 303 302 303 310 312 313
279 280 280 280 279 279 279 280 280 280 281 282 281 281 280 280 280 280 279 280 280 279 279 278 278 279 277 277 276 276 276 276 276 276 276 277 276 276 277 278 278 279 279 279 279 280 280 281 281 281 282 285 287 289 292 295 295 294 294 295 296 295 297 298 299 300 299 299 299 306 302 303 305 303 303 303 302 307 303 303 303 304 304 308 311
279 279 279 279 279 279 279 279 280 280 280 280 280 279 280 280 279 279 279 279 279 279 278 278 278 278 277 276 276 275 275 275 275 275 275 275 275 276 276 276 277 277 278 278 279 279 279 280 280 280 282 284 285 288 290 292 294 295 295 296 296 295 295 296 297 299 299 298 298 299 305 306 304 304 304 305 306 302 300 304 305 307 308 306 308
280 279 279 279 279 279 279 279 279 280 279 279 278 279 279 279 278 278 278 278 278 278 278 278 277 277 277 276 276 276 275 275 274 274 275 274 275 274 275 276 276 276 277 277 277 278 278 278 279 279 280 282 283 285 287 290 293 295 296 296 295 296 296 295 296 298 298 298 297 297 300 307 308 307 308 307 307 306 305 304 305 306 305 299 304
279 279 279 279 279 279 278 279 279 279 279 278 278 278 278 278 278 277 277 277 277 277 277 277 277 276 276 276 276 276 276 275 274 274 275 274 274 274 274 274 274 274 275 275 276 277 277 277 277 278 279 281 282 283 286 289 292 294 295 295 296 295 295 295 295 296 298 296 296 297 298 304 307 310 309 308 308 307 306 304 305 308 304 301 297
279 279 278 278 279 278 279 279 279 279 278 278 278 278 277 278 277 277 277 277 277 277 277 276 276 276 276 276 276 275 275 275 275 274 274 274 274 274 274 274 273 274 274 274 276 276 276 276 277 278 279 279 281 283 285 287 290 293 294 295 295 295 295 295 295 296 297 297 297 296 296 297 304 308 309 309 307 306 305 305 304 305 304 301 295
278 278 278 279 279 278 279 279 279 278 278 278 277 277 277 277 277 277 276 277 276 276 276 276 276 275 275 276 275 275 275 275 275 275 274 274 274 273 274 274 273 273 273 274 275 275 275 276 276 277 278 279 281 282 284 286 289 293 294 294 294 293 293 294 295 296 297 297 296 296 295 297 300 305 307 308 308 308 307 307 306 301 296 297 298
278 278 278 278 278 278 279 279 278 277 277 277 277 277 277 277 276 276 276 276 276 276 275 275 275 275 275 274 274 275 275 275 274 275 274 274 274 273 273 273 273 273 273 274 274 275 275 275 276 276 278 280 280 280 282 284 288 290 292 292 292 294 293 293 294 295 296 297 297 297 296 297 298 302 305 308 308 309 308 309 308 305 300 296 297
278 278 278 278 278 278 278 278 277 277 276 277 277 277 276 276 276 276 275 275 275 275 275 275 274 274 274 274 274 274 273 273 273 273 273 274 274 273 273 273 273 273 273 273 273 274 274 274 275 276 278 279 279 279 281 284 288 290 291 291 291 292 292 292 293 294 296 297 298 297 297 297 299 301 303 306 307 309 309 309 309 307 305 301 297
278 279 278 278 278 279 278 277 277 277 276 276 276 276 276 276 275 275 275 274 274 274 274 274 273 273 273 273 273 273 273 273 273 273 273 273 273 273 272 272 272 272 273 273 273 273 273 274 274 276 277 277 278 279 281 284 287 289 290 291 291 291 291 292 293 294 295 297 297 298 297 298 299 301 302 303 304 306 308 308 308 308 307 304 302
278 278 278 278 278 277 277 276 276 276 276 276 276 276 275 275 275 275 274 274 274 274 274 274 273 273 273 273 273 273 273 273 273 273 273 272 272 272 272 272 272 272 272 272 272 272 272 273 274 274 275 276 277 278 279 281 283 286 289 290 291 291 291 291 292 293 294 296 297 297 298 298 299 302 303 303 304 304 308 308 308 308 307 307 305
278 278 278 278 277 276 276 275 276 276 275 275 275 275 275 275 275 274 275 274 274 273 273 273 273 273 272 272 272 272 273 272 273 273 272 272 272 272 272 271 271 272 271 271 271 271 272 272 273 274 274 275 276 277 279 280 282 285 288 289 290 290 290 290 291 292 293 294 296 297 298 298 299 302 302 303 304 305 307 308 308 308 307 308 307
278 278 278 277 276 276 276 275 275 275 275 275 274 274 274 274 274 274 273 273 273 273 272 272 272 272 272 271 271 271 271 272 272 272 272 272 272 272 272 271 271 271 271 271 270 271 271 272 272 273 274 274 276 277 278 279 280 283 286 288 289 289 289 290 290 291 292 293 294 296 298 298 299 301 302 303 304 305 305 307 308 308 307 307 306
277 277 276 276 275 275 275 275 275 275 274 274 274 274 274 273 273 273 273 272 272 272 272 272 272 272 271 271 271 271 271 271 271 271 271 271 271 271 271 271 270 271 271 270 270 271 271 272 272 273 274 275 275 276 277 278 280 282 285 288 288 288 288 289 289 289 290 292 293 294 297 299 299 300 303 303 304 304 304 305 306 306 306 306 307
277 276 276 276 275 275 275 275 275 274 274 273 273 273 273 273 273 272 272 272 272 272 272 272 271 271 270 270 270 270 271 271 271 271 271 271 271 271 272 271 270 270 271 270 270 270 271 271 271 272 272 273 274 275 277 278 279 281 285 287 288 288 288 287 287 288 289 291 291 292 295 298 300 300 302 303 304 304 304 305 305 306 306 305 305
276 276 275 275 275 275 274 274 274 274 273 273 273 273 273 272 272 272 271 271 271 271 271 271 270 270 270 269 269 270 270 270 270 270 270 271 271 271 271 270 270 270 270 270 270 270 271 271 271 271 272 273 274 275 277 277 278 278 280 285 287 287 287 287 287 287 288 289 290 291 293 296 299 300 302 303 303 304 304 304 304 304 305 303 302
276 276 275 275 274 274 274 274 274 273 273 272 273 272 272 272 272 271 271 271 271 271 270 270 270 269 269 269 269 269 269 269 270 270 271 271 271 271 271 270 270 269 269 269 269 270 270 271 272 272 273 274 275 275 275 276 277 278 279 281 285 287 287 287 287 287 288 288 289 290 291 294 297 300 301 302 302 302 303 303 302 302 303 302 300
276 275 274 274 274 274 274 273 273 273 272 272 272 272 271 271 271 271 270 270 270 270 270 269 269 268 268 268 268 268 268 269 269 270 270 270 270 270 270 269 269 269 269 269 269 269 270 270 270 271 271 271 272 272 273 274 275 276 278 279 282 285 287 287 286 287 287 288 289 290 291 293 296 298 301 302 302 301 302 303 302 301 301 300 298
275 275 275 274 274 274 273 273 272 272 272 272 271 271 271 270 270 270 270 270 269 269 269 268 268 267 267 267 267 267 268 268 269 269 269 270 270 270 270 269 268 268 268 268 268 269 269 269 269 270 270 271 271 272 273 273 275 276 277 278 280 283 286 286 286 286 287 288 289 290 291 293 294 297 301 302 302 301 302 301 301 301 299 299 297
275 274 274 273 273 273 273 272 272 272 271 271 271 271 270 270 269 269 269 269 269 268 268 267 267 266 266 266 267 267 268 268 269 269 269 269 269 269 268 268 268 267 267 268 268 268 269 269 269 269 270 271 271 272 272 273 274 276 277 278 280 282 285 286 286 286 287 287 288 288 289 291 294 297 301 303 302 302 302 300 301 300 299 298 297
274 274 273 273 272 273 272 272 272 271 270 270 270 270 270 269 269 269 268 268 268 267 267 266 266 265 266 266 267 267 268 269 268 268 268 268 268 267 267 267 267 267 267 267 268 268 268 268 269 269 270 271 271 272 273 274 275 276 277 278 280 283 285 285 285 286 286 286 287 288 289 290 292 292 294 299 300 301 303 300 299 300 298 298 296
274 274 273 273 273 272 271 271 271 270 270 269 269 269 269 268 268 268 267 267 267 266 265 265 265 265 265 266 266 267 267 267 267 267 267 267 266 266 266 266 266 266 267 267 267 268 268 268 268 268 269 270 272 274 276 278 279 277 277 278 279 280 282 284 285 285 286 286 287 287 288 288 289 290 291 294 298 299 299 302 301 300 297 296 295
274 273 273 273 272 271 271 270 270 269 269 269 268 268 268 267 267 267 266 266 266 265 264 264 264 265 265 265 266 266 267 266 266 266 265 265 265 265 264 265 265 266 266 266 267 267 267 268 268 268 268 269 270 271 276 278 280 281 279 279 279 280 281 283 284 284 285 285 286 287 288 288 289 290 292 293 297 298 298 298 298 298 298 297 295
273 273 273 272 271 271 270 269 269 269 268 268 268 267 267 266 266 266 265 265 265 264 264 263 264 264 264 265 266 265 265 264 264 264 263 264 264 264 264 264 264 265 265 266 266 266 267 267 268 268 268 269 270 274 276 278 279 281 281 280 280 280 281 282 284 285 285 286 286 286 287 288 289 291 294 295 296 297 298 298 298 298 297 297 297
274 273 273 271 271 270 270 269 268 268 268 268 267 267 266 266 265 265 265 264 263 263 263 263 263 264 264 265 265 264 263 263 263 263 263 263 262 262 262 263 264 265 265 265 266 266 267 267 267 267 268 269 269 274 276 278 279 281 282 282 280 281 281 282 283 285 285 286 286 286 286 288 289 290 291 296 299 298 297 297 297 296 296 297 298
274 273 272 271 270 270 270 269 268 268 268 268 267 266 266 265 264 264 263 263 262 262 262 262 262 263 264 264 263 262 261 261 262 262 262 262 262 261 262 263 264 265 265 265 266 266 267 267 267 267 268 268 269 273 276 278 279 281 282 282 281 281 282 282 283 284 285 286 286 286 286 286 287 289 293 296 298 300 299 297 297 298 298 297 296
272 272 271 270 269 269 268 268 268 268 267 266 266 265 264 263 263 262 262 262 261 261 261 262 262 262 262 262 261 261 260 261 261 261 261 261 261 262 262 263 264 264 265 265 266 266 267 267 268 268 268 269 270 274 276 278 279 280 282 282 280 281 281 282 283 284 285 286 286 287 286 286 287 288 292 296 298 299 297 296 295 296 297 298 299
272 272 271 269 268 268 267 267 268 267 266 265 264 264 262 262 262 261 261 261 261 260 261 261 261 261 261 261 260 260 260 260 260 260 260 261 261 262 262 263 264 265 266 266 267 267 267 267 268 268 268 269 270 275 276 277 279 280 282 281 280 280 280 281 283 285 286 287 287 287 286 286 287 288 291 295 297 298 295 294 294 295 296 298 299
272 271 270 269 268 267 267 267 266 265 264 264 263 262 261 261 260 260 260 260 260 260 260 260 260 260 259 259 259 259 259 259 259 260 260 261 261 262 263 265 265 265 266 266 266 267 267 267 268 268 268 269 270 273 276 278 279 280 280 279 280 280 281 281 283 286 287 287 287 287 287 287 287 288 291 295 297 296 294 294 294 294 294 295 296
271 269 268 268 267 267 267 266 264 264 264 263 262 261 260 260 259 260 259 259 259 259 259 259 259 259 258 258 259 258 258 259 259 260 260 262 263 264 265 266 265 265 266 267 267 267 268 268 268 268 269 269 270 272 275 277 278 280 280 279 279 280 280 282 284 286 287 286 287 287 287 287 287 288 292 295 297 295 294 293 293 293 293 293 294
269 268 267 266 266 266 265 264 263 262 263 262 261 260 259 258 259 259 259 258 258 258 258 258 258 258 258 258 258 258 259 259 260 261 262 262 263 264 265 265 265 266 266 267 268 268 268 269 269 269 271 271 270 272 276 277 278 280 281 280 280 280 280 281 283 285 286 286 286 287 287 287 288 289 292 295 297 295 294 293 293 293 293 293 294
267 267 267 266 265 264 263 263 262 262 262 261 260 259 258 258 258 258 257 257 258 258 258 258 258 257 257 257 258 258 259 260 261 262 263 263 264 264 264 264 265 266 266 267 268 269 268 269 269 270 270 271 271 271 274 278 279 280 282 281 281 281 280 281 282 283 284 284 285 286 287 289 290 291 292 295 296 296 294 294 294 294 293 293 294
267 267 268 265 264 264 263 262 262 262 261 260 259 258 257 257 257 257 257 257 258 258 257 257 257 256 256 257 258 259 259 260 262 262 263 263 263 263 263 263 264 265 266 266 268 269 270 270 270 271 271 271 272 272 273 278 280 281 282 282 281 281 282 283 283 283 283 284 285 286 287 289 291 292 293 294 296 296 295 293 294 295 294 294 294
268 267 265 264 263 262 262 262 262 261 260 259 257 256 257 257 256 256 257 258 258 257 256 256 255 255 256 257 257 259 260 261 262 262 261 262 262 262 262 263 263 264 265 267 269 270 271 271 272 272 272 272 273 275 274 277 280 282 283 284 283 282 284 284 284 284 285 285 286 286 287 289 291 292 293 294 296 296 296 293 295 296 296 295 293
265 264 265 263 262 261 261 261 261 260 259 259 256 255 256 256 255 256 257 257 257 256 255 255 254 255 255 256 258 259 260 261 261 262 261 261 261 261 261 262 263 264 265 266 267 268 269 270 273 274 274 274 274 275 278 278 281 283 284 285 285 285 286 285 284 284 285 286 287 287 288 289 290 292 294 295 296 296 295 295 296 296 295 294 293
264 263 262 261 261 261 260 260 259 258 257 258 256 254 255 255 255 257 257 256 255 255 254 253 254 254 255 256 258 259 260 261 261 261 261 260 260 260 261 261 262 263 264 264 265 267 268 269 271 274 276 277 277 278 280 282 282 284 285 286 287 287 288 286 286 286 286 287 287 287 288 290 291 292 294 295 296 295 294 296 296 295 294 293 293
263 262 262 260 260 258 259 257 258 257 257 256 256 254 254 254 255 256 255 255 254 253 253 253 253 254 255 256 258 259 260 260 260 260 260 260 260 260 260 261 262 262 263 263 265 267 267 268 270 272 273 276 279 282 282 283 284 285 286 286 287 287 288 288 286 286 287 287 288 289 289 290 291 292 294 294 295 295 295 295 295 294 292 293 293
262 261 261 259 258 256 256 255 256 257 257 256 255 255 253 254 256 255 255 254 253 252 252 252 253 254 255 257 258 259 259 260 260 260 260 260 259 259 259 260 261 262 262 263 265 266 267 267 269 271 272 273 276 279 282 284 284 285 285 286 286 287 287 287 287 287 287 288 288 289 289 289 290 291 292 293 293 294 294 293 293 293 293 293 293
260 261 259 257 255 255 254 254 253 256 256 256 255 255 255 255 254 255 254 253 252 251 252 252 253 254 255 257 258 258 259 259 259 259 260 260 259 259 260 260 261 261 262 263 265 266 266 267 268 269 270 271 273 276 279 282 284 285 285 285 285 285 286 287 286 286 287 287 287 288 288 288 289 291 292 292 293 293 293 293 293 293 293 293 293
261 259 257 255 255 255 254 254 254 256 256 255 255 254 254 254 254 254 252 251 251 251 251 251 253 255 256 257 258 259 258 257 258 258 258 258 259 260 260 260 261 261 262 264 265 265 266 267 267 268 268 269 270 273 276 277 278 280 283 286 286 286 286 286 286 286 286 287 287 288 288 288 289 290 292 292 293 293 292 292 293 293 293 292 292
259 257 256 256 254 254 253 254 254 255 255 254 253 253 253 254 254 253 252 250 250 251 251 252 253 254 255 257 257 257 257 257 257 258 259 259 258 259 260 262 263 264 265 265 265 266 267 268 268 267 267 267 269 270 273 278 279 281 282 284 286 286 287 287 287 288 287 287 287 287 287 287 288 290 290 291 292 292 292 292 291 292 293 292 292
258 257 255 255 254 253 253 253 254 255 254 253 252 253 253 254 253 252 251 250 250 250 251 251 253 254 255 256 256 256 256 257 257 257 257 258 261 265 264 262 262 267 270 271 271 267 268 269 268 268 268 268 268 271 277 279 280 281 282 285 287 289 289 288 289 290 288 287 286 286 287 288 289 290 290 290 291 291 291 291 291 291 292 292 291
257 255 253 253 254 253 252 252 253 254 252 252 251 252 252 253 253 252 251 250 250 250 251 251 252 253 256 256 256 255 256 256 257 257 257 256 257 258 264 267 267 268 269 270 270 271 272 273 270 267 269 273 274 275 276 277 278 279 281 284 287 289 289 289 290 288 288 287 287 286 287 289 289 290 290 291 291 291 291 291 291 291 292 291 291
Wind_Speed
6 8 5 3 2 1 1 3 4 4 4 4 4 6 8 10 11 11 9 9 8 9 9 10 11 12 9 9 11 9 10 11 9 9 10 10 13 13 14 12 15 18 17 18 19 17 14 13 13 12 11 10 10 10 10 10 9 9 11 11 14 17 15 15 15 14 13 13 12 13 11 9 12 14 14 14 13 13 15 14 14 12 14 15 14
2 4 3 0 2 2 4 4 3 4 4 5 7 8 7 8 8 8 6 7 8 9 9 9 8 8 11 12 12 13 11 11 13 11 12 11 10 11 12 14 15 15 16 19 18 18 17 16 14 13 12 10 10 10 9 8 8 8 9 12 10 13 15 13 14 15 14 13 7 2 1 0 2 8 15 14 14 10 9 17 16 14 14 14 12
4 4 2 1 1 3 3 3 3 1 3 4 4 5 6 6 6 5 5 7 7 8 8 9 9 10 10 11 12 13 10 9 9 11 12 13 12 12 12 12 13 14 16 17 16 16 16 17 16 13 11 10 11 11 9 9 7 8 9 10 14 11 12 13 14 15 13 11 12 8 6 5 2 4 7 13 13 10 8 9 17 17 15 13 12
6 5 3 0 0 0 1 2 2 2 3 4 5 6 5 5 5 6 6 6 7 7 8 8 10 11 10 11 12 11 14 14 14 12 11 12 16 11 10 11 12 13 14 15 15 16 16 17 16 14 14 12 12 12 11 10 8 7 7 9 11 15 11 14 13 15 16 11 10 12 10 12 9 10 11 7 8 12 10 10 9 15 15 12 11
6 4 2 1 1 0 1 1 2 4 4 4 4 4 3 4 5 5 5 6 5 7 8 9 10 10 10 11 8 10 8 8 10 12 13 12 11 9 12 14 11 12 14 15 16 16 16 17 17 17 16 15 12 11 11 11 9 7 8 9 9 11 15 12 15 14 18 18 12 6 4 9 14 11 12 4 2 10 12 9 7 9 13 12 11
8 6 5 4 2 1 2 2 4 3 2 2 2 2 3 3 4 5 4 5 6 7 8 9 9 10 12 13 16 16 15 12 11 14 15 15 15 13 12 12 15 15 14 14 14 14 14 17 17 18 17 14 12 12 11 9 7 8 8 7 10 10 12 13 15 15 16 18 20 17 14 11 15 12 16 9 1 1 10 12 11 10 10 11 9
3 2 3 3 1 0 2 2 2 2 2 2 2 2 3 3 4 4 5 5 6 6 8 8 9 9 9 10 10 10 13 13 12 12 11 13 11 14 13 12 13 14 12 10 13 14 16 15 15 16 16 15 13 12 11 10 9 8 7 7 8 8 10 13 15 15 15 17 17 18 13 4 5 13 13 7 6 2 3 10 12 12 11 13 13
7 5 5 4 2 3 2 2 2 3 3 1 2 2 3 4 4 5 5 5 5 6 6 6 8 10 11 10 9 9 10 14 15 15 16 12 14 14 13 13 12 12 12 13 12 15 15 15 15 13 13 14 14 13 13 12 9 7 7 8 8 7 9 11 13 13 12 17 15 15 15 6 9 19 20 20 16 14 7 0 4 11 10 10 12
7 6 5 5 5 4 5 3 4 4 3 2 2 2 2 3 3 4 6 5 6 6 6 6 7 9 10 10 12 10 10 12 12 14 14 13 14 13 13 13 12 12 12 12 13 14 15 15 13 13 12 13 13 14 13 14 13 10 8 7 6 7 7 10 11 13 12 14 16 16 7 9 12 13 11 3 12 13 10 12 9 4 9 9 11
5 7 6 6 5 4 4 4 4 4 3 3 2 2 2 1 4 5 7 5 6 6 6 7 7 8 9 11 13 13 12 12 11 13 11 13 15 16 12 13 11 12 11 12 12 13 15 15 14 15 15 13 12 15 16 15 13 10 10 8 7 7 7 10 12 13 11 12 12 18 10 7 9 7 7 9 6 14 17 16 13 14 14 11 10
6 6 6 6 4 4 3 4 4 4 3 3 3 3 1 3 4 5 6 6 6 6 6 7 7 7 8 10 12 14 14 14 14 14 12 14 14 14 14 13 13 11 12 11 12 13 13 14 13 13 14 13 13 15 14 14 14 12 9 8 8 7 6 10 13 13 12 11 12 14 15 14 13 15 14 14 16 12 8 12 14 15 16 14 10
7 6 6 5 3 3 3 4 4 5 4 4 4 2 4 4 4 6 6 5 6 6 6 7 7 8 8 10 12 12 12 12 14 16 16 17 15 15 13 13 12 12 10 12 9 11 11 11 14 14 13 12 14 12 14 16 15 15 10 8 7 6 6 8 11 13 14 11 10 11 16 14 13 16 16 16 15 15 17 17 14 10 6 2 4
7 7 6 4 4 5 4 5 5 4 5 4 3 4 4 4 5 6 9 6 7 6 7 8 7 8 9 10 10 10 11 12 13 15 15 13 14 15 16 13 14 11 13 10 12 12 12 12 12 14 13 11 13 13 14 16 16 15 12 9 8 7 6 8 10 12 13 11 10 10 13 16 13 13 14 15 13 12 12 14 11 13 13 8 4
8 7 6 6 6 5 5 5 5 5 4 2 3 4 4 4 5 7 10 7 8 8 8 8 8 8 9 9 10 10 12 12 11 12 13 11 12 13 13 15 13 15 13 15 12 12 14 13 14 14 14 15 15 15 14 16 17 16 14 11 9 7 6 8 10 12 12 13 9 10 11 15 17 11 12 15 16 15 15 17 14 8 6 8 4
7 7 6 7 6 5 5 5 5 5 2 4 4 4 4 5 6 8 11 10 8 8 8 9 9 9 9 9 9 9 11 11 11 11 11 13 14 14 15 12 14 13 15 11 14 15 15 13 17 14 15 16 13 13 14 15 17 16 12 12 9 7 7 8 8 10 13 12 10 10 12 15 17 13 10 14 13 16 18 18 18 17 8 5 5
7 6 6 5 5 5 5 5 6 1 2 4 5 5 5 5 6 8 10 11 10 10 10 10 10 9 10 10 11 10 10 10 11 11 12 13 14 16 13 16 11 13 15 13 15 14 14 16 16 16 15 13 13 14 14 15 15 16 13 11 10 7 7 7 8 9 12 13 11 10 10 14 16 16 12 11 12 14 13 13 16 20 20 12 7
7 6 6 6 5 5 5 5 2 1 3 4 5 5 5 7 7 10 11 9 9 9 10 10 11 11 12 12 11 12 13 13 13 15 15 14 15 11 12 15 14 13 12 14 16 13 14 15 14 16 14 11 12 13 14 14 16 14 13 12 11 9 8 7 7 8 9 10 10 10 10 12 14 16 12 11 11 13 16 16 16 19 20 20 14
7 7 6 6 6 6 5 3 1 0 3 4 5 5 5 5 7 10 11 12 11 10 10 9 10 11 12 13 13 12 13 13 13 14 12 13 14 11 14 11 14 13 13 13 12 14 14 16 15 14 11 12 13 14 14 14 14 13 13 12 10 9 8 6 6 7 8 10 10 10 9 11 12 15 12 8 8 11 13 15 16 14 17 21 17
6 6 6 6 7 6 3 1 0 2 4 5 4 4 5 5 6 7 10 11 12 11 10 10 9 9 9 11 12 13 13 12 12 15 14 14 13 14 14 13 15 12 14 13 12 15 13 15 14 13 13 13 15 13 14 11 13 14 13 11 10 10 8 7 6 6 7 9 11 11 10 10 12 14 12 8 8 8 13 15 15 15 15 18 19
7 7 7 7 7 4 2 1 2 4 5 4 4 4 6 6 7 8 9 10 10 11 11 12 12 11 11 11 12 12 13 13 14 15 14 16 14 15 14 16 13 14 14 13 13 13 15 14 14 12 14 13 12 13 10 10 12 13 12 11 10 10 9 8 7 6 6 8 11 12 11 10 11 11 12 10 11 10 11 13 14 13 14 15 16
8 8 8 7 4 1 1 2 3 4 4 4 4 5 5 6 7 8 10 12 12 11 10 11 11 12 13 14 13 14 14 15 13 14 15 14 16 14 13 14 14 14 13 13 14 13 15 14 15 12 13 13 13 13 11 10 10 13 12 12 11 10 9 8 6 7 6 8 10 12 12 11 10 12 11 11 11 11 11 12 14 14 14 12 12
8 8 5 4 3 1 2 2 3 4 4 4 4 4 6 7 7 8 10 10 11 12 11 12 11 11 13 13 15 13 14 13 16 17 14 15 12 14 13 13 15 14 12 13 14 13 13 14 13 14 12 12 14 14 14 10 11 12 14 12 11 10 9 8 6 7 7 7 9 12 12 11 10 13 13 14 14 13 13 14 13 13 13 13 13
8 5 4 4 3 3 3 3 4 5 5 4 4 4 6 7 8 8 9 11 10 11 11 11 12 12 12 13 13 12 15 15 17 13 16 14 16 14 13 15 14 11 13 10 13 12 14 13 15 15 15 14 13 14 12 10 11 14 15 13 11 10 9 8 7 7 7 7 9 11 13 11 9 12 14 15 16 15 14 16 16 14 14 13 12
4 4 4 3 3 2 2 4 5 4 4 4 4 4 5 7 8 9 10 11 12 11 11 11 11 12 13 13 14 15 14 17 15 15 17 18 17 16 17 17 17 19 16 15 11 12 13 13 14 14 13 14 14 13 11 10 10 12 15 15 11 10 9 8 7 7 7 7 9 10 12 12 10 12 15 14 14 16 15 14 16 14 15 13 9
5 5 4 3 3 3 4 4 5 4 3 3 5 5 6 8 7 9 10 10 10 10 12 12 12 14 15 13 15 13 16 16 18 15 16 19 20 20 13 16 20 20 18 16 17 15 16 15 14 13 13 11 11 11 11 11 10 10 12 14 13 10 9 9 7 7 7 8 9 10 11 11 12 12 14 16 13 18 17 16 15 12 13 12 9
6 5 3 5 5 4 4 5 4 3 3 4 5 5 6 8 9 8 11 12 12 10 10 12 12 13 14 15 15 15 16 19 19 20 22 20 18 18 20 17 14 19 20 18 18 16 15 17 17 16 15 16 15 15 15 12 13 10 11 12 13 13 10 9 8 7 7 7 9 10 10 11 12 13 15 15 17 18 16 17 17 14 13 12 12
8 6 5 3 3 6 7 4 3 2 3 4 5 7 7 8 9 8 9 10 11 12 13 12 13 11 12 13 14 15 15 16 19 18 15 16 19 17 16 19 17 19 20 19 18 18 16 16 17 16 16 15 14 16 15 15 12 13 11 13 12 13 12 9 8 8 7 7 8 9 11 11 12 14 15 17 17 19 16 17 18 17 13 14 13
4 4 5 6 7 7 5 2 2 2 3 4 5 6 7 8 10 10 10 9 10 12 14 14 14 16 17 17 16 15 16 17 14 17 19 18 18 19 18 18 20 19 18 19 18 18 17 16 16 16 16 15 15 14 14 13 13 11 9 11 11 12 13 11 9 8 8 8 8 9 11 12 13 14 14 15 18 18 17 15 14 14 15 16 14
7 8 7 8 7 5 3 1 1 2 3 5 7 7 7 8 8 9 9 11 11 12 14 15 15 14 13 13 15 14 13 19 21 19 20 19 21 22 19 18 18 20 17 18 18 18 19 18 17 17 16 15 16 16 12 10 9 11 9 11 12 12 10 9 9 9 9 9 9 9 10 12 13 17 21 18 18 20 17 16 14 14 15 16 14
10 9 9 8 6 3 1 1 2 3 4 6 8 8 8 9 11 10 10 11 11 13 13 14 14 15 15 16 16 16 18 17 15 19 19 19 18 17 21 22 19 17 17 17 18 18 18 18 18 17 15 14 14 13 16 24 20 13 11 10 10 11 12 11 11 10 10 9 10 9 10 15 18 20 22 21 23 23 22 19 18 17 17 16 17
9 9 8 5 3 2 0 0 3 4 5 6 6 8 9 9 9 11 11 12 12 13 13 13 15 15 15 16 15 15 15 18 19 18 18 19 22 22 18 19 19 18 18 18 17 19 17 16 17 16 16 14 13 14 26 25 24 26 18 13 11 11 11 12 11 11 11 10 9 9 9 12 14 16 16 19 24 26 24 22 24 24 21 20 18
10 8 5 4 3 1 1 2 3 3 4 5 8 8 9 10 10 10 11 11 12 12 13 14 14 15 15 15 14 16 17 18 17 19 18 16 17 17 19 19 19 21 18 17 18 17 17 16 15 16 16 15 14 19 25 26 26 26 23 15 12 11 11 11 11 11 10 9 9 9 8 9 11 12 13 12 20 26 26 25 26 26 27 28 27
9 7 6 5 3 2 2 2 2 3 5 6 6 8 8 9 10 11 11 11 12 12 14 14 13 14 15 15 16 17 19 18 17 17 17 19 19 19 19 19 18 17 18 18 18 18 17 15 15 16 16 16 15 20 24 26 25 25 25 21 13 12 11 11 12 11 10 9 8 8 9 9 10 16 15 13 14 20 25 28 28 28 27 27 28
7 7 6 4 3 2 3 2 2 2 3 4 5 7 8 8 9 10 11 12 12 14 12 14 15 14 15 15 15 17 19 19 18 18 18 18 18 18 18 18 18 18 16 16 17 18 17 16 15 15 16 16 16 19 24 25 24 24 24 21 13 12 12 12 13 12 11 10 9 9 9 10 9 11 12 13 14 17 19 20 22 20 19 22 24
9 7 5 4 4 3 2 2 2 3 3 5 6 6 8 9 9 11 10 11 12 13 13 14 15 15 15 15 16 17 17 18 18 19 18 17 19 20 18 16 15 16 15 15 15 16 15 14 14 14 14 15 14 23 24 24 24 24 25 21 13 11 11 11 11 12 12 11 10 9 9 9 10 12 12 13 13 15 17 17 17 18 19 19 19
8 8 6 6 5 4 3 2 2 3 4 5 6 7 8 9 9 9 10 11 12 12 13 13 15 15 15 15 17 18 18 19 19 19 18 18 17 17 19 16 14 14 13 13 14 14 15 15 14 14 14 16 15 24 25 25 25 24 24 14 12 11 12 13 13 12 12 10 10 9 9 9 11 13 16 19 17 14 16 20 20 18 17 17 17
6 6 7 6 7 6 4 2 2 3 4 4 5 7 8 9 10 9 10 11 11 12 13 14 15 16 16 16 16 17 19 20 20 21 21 16 17 18 15 13 15 14 14 12 13 13 13 14 14 13 14 15 15 20 23 23 23 23 19 12 11 10 11 13 14 12 11 11 10 10 9 10 11 13 16 19 20 20 15 20 20 19 17 15 15
8 7 7 7 7 6 4 3 1 2 3 4 6 7 8 9 10 10 11 12 11 12 13 14 15 16 17 16 16 16 19 20 20 21 23 19 16 15 14 14 16 18 17 14 13 13 13 13 14 14 13 14 14 18 24 24 23 23 19 13 11 11 12 12 12 11 10 10 11 15 13 11 12 14 17 18 21 19 17 19 19 20 18 17 15
8 8 8 7 6 5 3 2 2 4 5 6 7 7 8 9 10 11 10 11 11 13 13 15 16 15 15 16 16 17 17 19 21 21 18 18 18 18 17 16 16 16 17 16 13 11 13 13 13 14 20 19 14 16 22 24 25 24 18 11 11 11 12 12 11 10 9 8 9 11 16 15 15 16 22 19 21 19 16 18 19 19 19 19 17
7 6 8 8 6 4 3 4 5 5 5 6 5 7 6 8 10 9 10 10 12 13 14 14 14 15 15 16 15 17 18 18 20 21 19 18 17 17 18 17 16 15 15 15 14 11 12 12 12 13 13 14 14 14 17 24 24 23 24 14 10 11 13 13 12 10 9 9 10 10 12 18 21 23 24 21 21 24 17 17 18 18 19 21 15
8 8 8 6 5 4 4 4 3 4 4 5 4 5 6 7 9 9 10 11 12 13 14 14 14 15 15 16 15 15 19 19 17 18 18 18 17 18 18 18 17 16 15 15 15 14 12 13 12 12 11 12 12 13 16 24 24 24 23 20 11 12 11 11 10 11 10 10 10 10 9 14 19 21 22 21 22 26 22 18 19 20 21 18 17
8 9 7 6 5 5 3 3 2 4 4 3 3 5 6 7 7 9 10 11 11 12 13 14 15 14 15 16 16 16 15 15 16 17 18 18 17 16 16 17 15 15 16 16 15 15 15 14 12 10 10 12 14 20 15 20 24 25 24 25 14 12 13 10 11 10 10 10 10 9 8 10 16 19 20 21 24 26 26 17 20 23 21 23 19
10 8 6 6 5 4 2 2 3 4 3 3 4 5 6 7 8 10 10 11 11 12 13 14 14 14 15 16 16 17 16 14 16 17 18 18 17 16 17 16 16 16 16 16 16 15 15 16 14 11 9 10 12 12 20 18 23 25 25 23 23 16 20 14 11 11 10 10 8 8 9 14 17 18 20 21 24 28 25 19 25 21 24 28 22
7 8 7 5 5 3 2 2 2 2 2 2 3 5 7 8 9 9 11 11 11 12 13 13 13 14 15 15 15 16 14 14 16 16 16 16 18 17 15 13 15 14 14 15 15 15 15 15 15 15 12 8 9 9 14 21 18 23 22 22 21 21 20 13 11 10 9 9 9 9 9 14 17 19 21 23 26 27 21 25 24 24 26 25 16
9 8 6 4 5 2 2 0 2 2 2 2 3 4 7 8 8 9 10 11 12 13 12 13 14 14 14 14 14 13 14 14 15 16 16 16 17 17 15 14 14 14 14 15 14 14 15 15 15 15 14 14 12 10 10 13 19 19 21 20 20 19 18 18 13 10 10 10 11 13 14 16 17 18 21 23 24 28 29 22 26 26 24 14 15
9 6 7 4 4 3 1 1 2 2 2 2 3 3 6 8 9 9 10 11 12 13 13 13 13 13 14 14 15 14 13 14 14 14 15 13 14 15 14 13 14 12 13 14 14 15 15 15 15 14 15 15 14 14 11 10 10 13 14 20 21 20 18 18 17 13 14 16 16 16 18 19 19 18 15 14 14 17 24 22 25 25 16 15 15
9 8 7 5 4 3 1 1 2 2 2 3 3 4 4 7 8 9 9 10 11 11 12 12 13 13 12 12 13 13 14 13 13 12 13 15 15 13 14 13 11 13 13 12 14 16 15 15 14 15 15 15 14 12 14 13 10 8 8 10 11 12 16 17 14 12 14 14 15 16 13 15 14 17 17 17 18 19 18 17 14 15 15 15 15
8 7 6 5 5 4 1 1 1 2 2 3 3 4 5 6 6 7 8 9 10 10 11 12 13 12 11 12 12 16 16 12 13 13 13 14 15 14 12 12 13 13 11 13 17 15 15 14 15 15 14 14 14 13 13 14 16 15 12 9 8 8 8 8 10 11 11 11 11 11 14 12 12 12 13 11 11 11 12 12 12 13 13 14 17
10 6 6 6 4 3 2 1 0 1 2 3 3 4 4 6 7 7 8 8 9 10 10 10 11 10 11 11 11 12 12 13 13 13 12 11 12 15 14 13 15 13 14 15 14 14 14 13 13 13 15 15 14 15 16 22 22 23 18 14 9 6 6 7 11 14 9 9 9 10 9 11 11 11 9 10 10 10 11 12 14 14 13 13 13
7 7 6 5 5 4 3 2 0 0 1 2 3 3 4 5 6 6 7 8 9 10 9 9 9 9 10 11 11 11 11 12 13 13 14 13 15 23 16 14 12 24 30 29 25 17 17 14 13 11 12 14 14 16 28 32 30 28 27 25 19 18 14 10 11 17 12 9 10 10 10 10 11 10 10 10 11 11 13 13 12 15 14 13 13
9 9 6 5 4 3 3 2 1 0 1 1 3 3 4 5 6 6 6 7 7 8 8 8 9 8 11 11 10 11 11 11 12 13 14 14 14 16 20 25 25 28 30 32 29 30 29 28 21 15 17 25 27 31 33 32 32 31 29 24 19 19 20 18 18 11 12 11 10 11 10 11 11 10 10 11 12 13 15 15 15 15 14 16 17
Wind_Direction
192 186 185 171 146 110 16 16 9 336 346 350 3 10 17 12 3 356 348 348 348 347 352 350 345 335 330 330 323 322 319 317 312 316 311 310 308 304 306 316 326 322 318 316 311 307 297 286 278 271 261 254 253 258 263 272 276 282 289 289 291 290 282 272 262 246 234 234 224 216 213 215 212 204 205 200 207 206 197 195 197 199 200 195 195
171 203 205 11 38 21 18 25 12 8 340 357 16 13 10 8 1 340 340 343 350 355 348 344 346 340 329 327 325 320 325 323 320 319 313 308 305 311 317 319 315 315 315 312 305 300 299 297 286 274 264 254 254 257 262 261 271 277 288 293 280 281 282 276 269 247 231 218 187 231 297 335 260 224 202 204 199 208 217 192 189 195 196 192 187
194 210 236 246 14 22 24 360 337 327 343 13 10 14 11 7 344 336 335 347 350 351 348 342 337 334 332 319 321 314 306 304 297 304 307 309 314 315 311 311 313 313 309 305 303 300 297 297 292 281 266 259 263 262 256 261 262 273 281 285 295 281 274 275 275 254 238 210 206 170 191 165 268 231 226 200 195 192 184 208 187 183 188 186 182
192 190 178 270 298 32 1 338 303 336 1 11 12 10 6 348 333 340 345 347 344 343 344 336 332 327 321 314 311 306 312 313 310 309 306 311 316 312 307 312 305 301 301 304 307 307 305 303 299 290 279 270 261 261 258 258 261 266 271 277 284 292 283 283 273 263 245 206 209 199 186 188 194 212 189 217 205 186 190 185 193 180 173 173 176
191 205 212 191 67 3 258 268 326 9 360 358 358 354 346 330 328 335 336 338 335 341 342 338 333 329 323 311 295 293 283 284 303 312 316 313 305 310 315 312 305 304 307 306 302 302 302 301 301 298 290 277 264 256 254 253 253 253 264 274 274 282 289 283 281 273 259 226 199 191 153 197 204 186 177 205 207 187 192 188 188 181 167 167 171
176 187 193 180 181 281 331 334 356 345 328 284 274 314 322 317 325 330 332 333 339 341 343 341 337 333 331 333 334 333 325 329 330 325 322 321 318 312 305 310 310 306 297 292 296 304 303 301 299 298 296 287 271 259 256 249 248 254 252 260 272 272 278 283 281 278 272 260 223 205 185 195 192 179 167 195 319 241 190 187 181 182 167 158 164
217 180 158 138 235 173 305 312 291 275 264 250 284 309 317 314 322 329 334 337 340 339 342 340 332 329 325 319 312 312 313 310 312 309 307 307 305 306 306 306 304 297 294 300 307 303 301 297 297 297 298 297 284 268 256 247 246 242 248 251 262 272 277 278 276 279 286 269 246 222 203 215 219 150 193 106 167 271 208 177 184 182 174 169 166
179 196 187 193 193 186 225 246 252 234 240 249 286 291 312 317 327 332 336 336 332 331 331 337 327 324 319 315 307 306 304 302 312 313 310 305 302 301 304 304 301 296 300 302 301 301 301 296 292 294 304 305 298 282 270 261 249 243 239 245 257 263 270 272 278 277 272 281 266 241 214 203 197 190 178 177 169 169 189 223 168 173 169 179 171
174 180 187 196 211 215 212 238 241 242 241 244 259 270 279 304 327 323 328 332 325 326 324 324 322 315 313 313 311 305 300 302 303 304 304 305 300 301 302 300 298 296 294 298 300 300 298 294 299 306 306 303 299 291 277 261 246 242 242 244 246 263 273 276 273 272 268 267 282 257 265 198 187 197 176 134 171 153 171 171 169 156 166 175 177
185 177 186 200 204 210 212 223 253 238 235 235 256 261 273 323 330 330 324 328 322 320 315 312 312 313 311 312 308 307 310 306 304 303 302 306 303 304 304 302 301 300 297 293 296 295 297 301 303 302 300 298 300 300 295 275 253 241 238 239 240 255 265 273 273 273 268 268 271 276 229 210 178 181 189 149 166 181 167 173 166 164 170 180 169
182 192 200 205 210 209 218 230 246 261 249 242 245 251 317 351 333 325 314 316 317 313 311 308 307 307 307 305 303 305 308 308 310 308 307 309 305 304 306 304 301 297 299 295 290 292 293 296 298 298 298 296 299 302 299 289 273 258 242 238 238 246 257 272 274 271 268 264 268 278 261 206 185 182 183 184 168 168 171 173 163 173 173 164 178
185 185 209 219 246 260 256 263 256 249 250 248 251 327 358 344 331 313 308 309 310 308 307 303 303 303 299 298 298 299 303 307 308 306 311 307 307 304 304 301 299 297 293 293 292 292 292 295 299 298 295 298 298 298 299 297 286 269 251 239 238 236 253 267 272 275 270 269 270 270 278 259 204 189 188 183 179 179 170 169 168 155 121 70 139
180 191 202 207 199 225 252 249 255 254 242 253 331 353 338 325 315 310 307 312 306 304 303 301 300 300 300 299 295 297 299 301 299 300 302 302 303 304 304 303 303 298 298 294 295 295 298 298 299 296 297 296 297 296 292 291 287 273 262 244 231 235 239 257 273 272 273 267 267 268 275 286 251 206 183 184 182 171 165 158 164 160 157 151 152
186 192 197 195 203 221 226 238 236 237 244 312 347 339 321 311 307 307 304 310 310 312 309 305 299 297 298 294 295 300 300 298 295 294 295 292 296 295 298 300 300 300 299 297 300 301 296 291 290 290 290 293 291 287 291 296 291 276 258 249 238 226 234 249 262 270 269 264 260 272 273 278 278 243 196 189 180 165 166 165 155 164 140 138 122
189 193 194 197 210 209 224 235 230 229 292 350 339 321 318 311 313 310 310 314 312 307 307 303 299 299 295 291 293 296 295 295 292 291 291 295 296 295 295 293 293 296 296 298 296 291 287 287 290 287 288 285 284 294 297 294 291 280 258 253 244 230 232 247 257 266 268 261 257 256 269 274 280 270 226 197 182 172 168 166 159 151 127 133 142
196 194 204 211 207 218 230 236 222 233 7 338 323 318 315 309 308 306 305 309 311 310 308 302 301 300 297 297 297 295 292 290 291 290 289 290 292 293 291 292 289 290 293 289 290 288 289 289 288 283 281 281 292 294 294 292 287 284 270 255 250 233 233 241 255 264 269 268 261 260 263 269 274 273 244 204 189 167 161 164 168 160 153 157 158
190 196 200 211 219 230 230 219 212 33 352 323 305 305 303 307 311 308 306 303 302 303 302 303 303 306 306 305 303 302 300 297 295 292 293 291 289 285 287 290 289 289 288 294 290 285 284 286 286 287 282 283 292 291 288 286 285 282 268 255 249 242 231 236 248 261 270 269 263 256 254 263 271 269 246 217 202 179 165 169 174 170 165 156 162
194 196 200 201 207 222 230 212 165 227 280 286 292 297 299 300 302 305 308 310 308 306 303 300 302 304 305 306 304 300 297 293 291 292 291 292 289 287 288 285 290 288 290 289 290 290 287 286 283 281 286 294 291 288 289 293 296 287 274 259 253 250 243 234 241 256 266 271 263 255 250 256 260 264 241 221 200 175 166 169 175 179 168 162 165
192 205 208 218 219 225 214 172 270 258 265 265 277 292 295 297 296 296 300 302 305 308 306 303 302 301 301 303 304 304 303 300 294 297 295 293 292 291 290 290 290 289 288 289 288 287 282 279 280 284 288 287 286 283 285 287 287 286 280 268 259 255 250 246 243 251 266 273 267 255 248 249 255 258 233 203 191 183 175 170 175 171 177 172 168
197 203 211 215 222 220 178 156 249 272 279 279 288 296 294 295 299 301 300 302 305 306 308 308 310 307 304 303 301 300 299 298 298 302 297 296 293 292 290 291 287 289 287 283 285 283 284 281 281 280 281 281 278 276 276 284 288 284 279 269 261 256 255 252 254 250 261 269 274 268 253 247 254 255 232 200 188 181 178 171 171 175 182 182 171
199 203 210 219 230 243 221 225 246 263 266 282 287 287 288 295 302 306 307 308 309 308 307 307 308 305 306 307 305 305 302 301 297 295 294 293 294 289 289 287 290 286 288 284 285 284 282 282 278 274 275 277 275 278 282 283 284 282 275 264 256 254 253 256 252 262 263 270 273 271 264 251 251 253 231 204 185 181 181 182 177 173 176 177 176
199 205 203 220 232 222 254 282 271 270 280 288 287 292 300 302 303 309 307 309 312 313 315 311 308 303 303 304 303 300 300 300 302 300 291 294 289 293 291 290 286 288 284 285 283 282 282 276 275 275 276 276 278 280 281 282 280 280 273 264 249 245 246 251 252 262 265 267 274 276 270 255 245 252 239 208 181 180 184 183 181 178 177 177 179
196 196 205 212 196 189 210 239 258 265 270 275 283 289 299 307 313 312 310 307 311 308 310 309 306 306 304 303 302 301 304 303 302 299 299 297 299 295 295 293 294 290 287 279 284 280 277 277 278 278 279 276 275 274 273 275 283 288 284 268 248 239 237 242 248 255 262 267 273 275 277 270 245 249 239 215 185 179 182 185 184 182 184 179 171
191 193 202 199 177 193 240 260 267 268 275 289 293 300 307 308 310 310 309 311 314 315 310 307 304 300 301 301 303 304 303 304 301 301 299 301 300 302 304 300 304 301 300 296 280 280 275 269 267 268 266 266 264 265 271 274 281 285 291 286 258 242 235 237 241 253 262 267 269 277 278 279 267 252 239 219 196 177 181 188 185 184 180 173 163
192 201 211 199 185 226 238 247 256 261 276 293 307 314 311 308 311 312 311 313 312 311 311 310 308 305 306 306 303 304 304 303 304 299 301 309 306 302 300 307 307 302 298 298 294 292 290 287 279 273 273 274 282 285 283 281 277 278 284 288 284 264 248 245 243 248 259 267 271 271 276 278 279 262 243 212 197 184 180 179 181 183 177 167 157
190 200 188 196 210 228 243 247 249 266 291 306 312 309 309 310 312 316 316 318 315 312 310 309 308 307 308 309 309 307 307 309 309 314 311 306 307 308 305 308 307 302 299 299 295 290 290 288 287 288 290 289 285 280 277 276 278 277 278 282 286 283 265 254 249 250 257 262 271 273 274 274 272 266 246 215 192 186 183 177 178 180 172 161 156
192 192 192 187 222 233 235 238 250 276 297 306 310 313 315 317 314 317 315 312 314 317 316 312 310 305 307 305 303 305 306 310 310 307 310 309 308 306 304 302 308 308 298 296 295 290 284 283 281 279 277 274 272 270 271 271 269 269 270 275 278 281 272 257 250 250 250 259 266 272 274 270 268 265 252 215 196 181 183 183 177 174 168 161 158
172 166 182 207 222 231 236 250 279 296 305 304 310 317 320 322 319 317 316 316 317 317 313 311 312 307 302 301 307 303 305 306 306 307 306 308 311 309 309 308 302 300 299 293 294 292 287 283 282 280 280 279 273 267 262 261 261 259 258 263 269 268 265 257 253 248 247 251 258 266 271 271 269 270 261 223 196 182 178 180 179 169 166 162 159
183 196 199 211 223 223 241 253 273 303 322 324 324 327 325 317 311 310 317 320 319 315 313 310 306 300 292 287 292 299 307 314 311 316 316 313 316 312 306 308 305 299 293 291 290 291 289 286 283 280 279 275 271 268 265 255 248 251 248 252 259 265 262 259 256 253 249 249 253 260 265 270 270 274 271 240 207 182 174 176 173 168 166 162 158
194 200 205 214 214 221 229 248 310 341 337 335 329 325 325 319 316 320 320 319 322 314 309 307 304 302 303 303 304 308 315 315 313 313 310 309 309 313 309 301 297 297 294 291 290 287 285 283 282 280 276 275 273 270 267 265 261 258 255 253 254 257 261 260 257 257 256 249 253 259 267 274 277 277 278 259 212 185 178 176 170 171 168 164 162
196 199 209 209 212 209 203 329 356 354 343 335 325 320 320 316 317 320 320 321 322 313 310 308 304 302 302 303 306 311 313 315 316 315 314 311 310 310 307 307 297 291 294 289 286 286 282 282 281 280 276 269 267 268 270 268 267 264 262 256 251 253 256 258 254 253 256 255 256 259 270 281 282 281 277 259 219 187 179 178 173 171 171 167 164
195 201 198 203 200 191 83 29 5 350 344 336 328 323 319 318 320 319 319 322 319 311 309 307 304 303 304 306 311 315 317 316 316 313 311 309 306 304 304 301 302 295 289 289 283 281 281 281 281 278 275 270 267 262 263 264 264 263 260 257 252 251 251 253 255 250 249 252 259 265 270 279 278 279 277 254 220 194 178 179 177 176 175 171 168
187 188 199 195 186 148 104 55 22 355 339 332 327 321 320 320 322 320 322 320 315 312 310 308 307 308 308 314 317 319 317 314 312 312 311 310 305 303 298 293 286 289 289 287 285 282 280 278 274 273 273 270 267 266 267 266 264 262 261 259 255 252 248 251 254 255 250 251 255 264 274 273 278 283 277 248 222 197 180 178 179 178 178 177 175
183 189 188 182 153 125 96 85 55 353 335 323 324 317 315 321 320 323 322 315 314 312 311 309 311 312 315 316 318 320 316 311 311 310 306 302 303 301 298 292 289 287 282 278 280 276 275 275 273 269 270 271 265 263 264 266 266 265 262 260 254 250 249 248 251 253 253 250 250 255 264 274 281 285 273 248 218 200 181 178 176 176 178 180 178
183 187 182 162 140 104 89 63 36 353 337 331 325 332 326 326 328 321 315 311 311 310 311 313 314 316 318 319 319 316 313 311 309 308 304 300 301 299 293 288 285 283 284 282 283 283 276 271 268 267 269 268 265 264 265 266 265 261 258 261 261 261 261 257 250 250 249 247 244 244 249 260 274 276 273 245 213 200 180 172 175 176 177 179 180
186 172 161 150 126 113 104 60 20 358 339 339 337 335 332 325 322 312 311 310 311 312 312 317 318 319 320 320 321 317 314 313 313 312 306 296 295 291 291 288 280 279 274 275 274 271 270 270 268 264 262 266 268 265 263 265 266 265 259 252 251 249 252 254 254 248 244 239 239 234 243 252 260 267 269 243 214 191 180 172 177 178 177 179 185
157 143 137 120 110 105 86 74 27 1 339 353 343 339 330 324 319 314 312 313 317 316 319 321 319 320 321 321 318 315 312 314 314 313 312 300 299 297 292 288 287 285 281 274 273 271 270 268 264 259 260 264 265 267 269 268 266 261 256 254 256 255 249 250 249 243 237 236 232 231 234 251 254 262 261 245 217 185 180 176 175 175 176 178 189
129 120 120 108 100 91 86 82 38 360 9 1 351 342 333 323 318 319 322 321 321 320 322 321 319 319 316 316 316 315 313 312 313 311 312 306 298 296 299 306 310 307 295 282 279 276 268 263 261 263 258 257 262 264 267 267 263 258 248 243 242 247 247 245 247 237 232 230 232 231 233 242 252 254 260 244 217 190 179 176 172 170 174 180 185
143 143 123 108 99 99 115 77 49 15 9 8 356 345 333 323 321 322 321 319 322 324 326 324 320 318 316 315 315 314 313 313 314 313 311 311 316 318 315 313 307 303 298 289 276 267 267 264 256 251 258 261 260 263 263 264 263 257 249 240 239 235 239 238 239 238 227 228 233 237 234 239 243 252 257 249 212 193 182 173 170 170 175 181 181
120 107 108 110 115 102 78 49 34 15 13 5 356 344 330 317 316 316 319 321 325 325 319 318 315 315 313 312 312 313 312 314 313 314 317 317 316 316 316 315 308 303 299 297 285 268 263 263 257 251 248 250 253 256 258 259 256 252 249 245 236 239 235 232 233 238 237 234 237 237 238 238 243 247 251 246 213 194 185 176 168 174 178 185 171
134 120 112 105 98 89 77 48 34 21 16 1 359 341 322 314 314 317 321 322 321 319 319 319 316 312 312 311 312 312 312 313 313 313 316 318 319 319 318 317 313 304 299 296 291 281 272 273 264 252 245 247 246 249 252 254 253 250 245 242 237 239 240 234 231 231 231 238 238 237 236 239 242 246 243 239 212 197 188 176 177 180 186 171 152
112 115 110 109 110 90 76 52 42 24 27 5 358 335 316 318 318 317 320 321 321 320 319 318 315 312 310 311 311 313 311 312 315 318 321 320 320 320 318 318 313 305 305 307 319 319 310 296 289 261 248 246 242 244 248 251 251 251 246 242 239 231 233 238 233 228 231 234 237 237 240 242 248 244 238 231 211 198 191 182 188 185 163 143 156
121 110 111 118 112 108 89 47 25 29 21 0 353 327 317 317 317 316 322 324 323 322 320 317 314 312 314 313 313 316 319 322 322 323 322 322 323 324 323 320 319 316 318 319 318 321 320 315 305 295 276 248 247 248 244 244 246 246 246 247 245 240 235 234 228 231 231 235 237 238 242 249 252 248 236 223 209 199 191 192 187 169 153 159 158
110 118 119 109 103 99 98 63 21 31 5 8 340 326 318 321 316 323 326 325 324 324 320 316 314 314 314 315 315 318 321 326 324 324 325 326 327 326 325 324 323 321 324 324 322 323 325 322 321 322 320 284 255 251 252 246 243 243 243 243 245 245 237 222 226 235 233 233 235 234 243 250 250 245 232 217 206 200 197 193 175 164 165 160 150
129 125 117 109 122 140 127 94 20 33 359 6 338 328 317 318 319 331 327 329 328 325 323 318 317 316 315 313 315 319 325 332 331 328 331 333 330 330 328 330 328 326 327 326 320 328 328 323 323 326 326 326 314 275 251 249 245 242 249 249 245 243 246 238 229 229 227 232 232 237 247 252 256 248 229 213 203 200 199 189 172 169 162 156 158
118 116 119 123 112 113 79 33 7 29 0 360 336 327 323 316 327 328 330 330 326 324 322 320 317 316 315 317 320 325 329 335 335 333 331 333 332 330 327 326 331 328 328 321 324 334 330 325 326 328 328 325 322 323 298 265 251 247 246 249 248 244 239 238 238 240 235 235 237 239 242 247 255 251 225 209 201 199 194 183 177 164 160 167 166
137 137 129 122 121 106 106 27 4 1 1 348 327 331 324 324 327 329 330 328 323 320 316 315 317 315 317 321 328 333 335 338 342 339 336 336 337 333 328 327 327 328 324 323 333 337 330 325 328 332 329 327 324 325 327 328 317 291 248 244 244 239 237 235 234 237 237 238 236 233 234 238 243 241 222 203 199 192 184 180 177 168 170 171 172
129 131 131 127 121 138 135 111 11 340 350 335 332 332 329 325 325 333 328 325 321 321 320 316 316 319 322 329 332 335 337 336 340 341 341 342 334 331 329 330 333 330 324 333 343 339 333 325 335 333 329 326 325 328 330 329 323 316 303 273 239 229 225 216 225 227 223 229 230 232 235 240 245 243 218 204 195 183 178 176 171 174 177 176 178
137 140 138 138 141 146 151 152 227 325 338 322 331 325 324 331 334 332 328 326 322 321 316 312 316 323 327 334 336 336 338 337 334 337 336 334 329 334 331 331 340 334 341 343 341 341 334 334 336 335 334 327 329 330 326 323 317 312 306 290 256 236 220 221 220 220 217 211 211 218 221 226 232 224 203 194 182 167 172 176 174 179 177 177 179
134 127 125 128 143 148 161 163 213 306 332 330 331 326 328 332 330 331 331 326 324 321 318 319 323 327 329 336 339 338 339 338 337 337 336 330 332 347 343 343 339 349 355 358 357 352 346 346 348 342 338 334 328 325 328 330 328 324 315 301 272 247 240 233 229 221 204 201 201 207 212 216 215 208 195 183 173 165 168 173 182 180 177 176 178
138 129 133 143 152 150 150 177 191 171 7 339 325 323 327 333 330 333 330 324 321 319 317 318 328 332 335 341 338 339 340 340 339 340 339 336 333 332 344 355 357 355 2 2 360 359 356 1 2 352 345 344 342 343 345 340 337 331 321 306 285 250 241 240 236 222 206 204 199 201 210 210 209 202 192 181 172 174 174 177 181 182 181 178 179